Home > Weather > Bridgewater > Past weeks

Flag for USA Weather for the Past 2 Weeks in Bridgewater, Massachusetts, USA

Now
48 °F

Low clouds.


Feels Like: 46 °F
Forecast: 44 / 57 °F
Wind: 5 mph from North

Location: Taunton Municipal Airport

Current Time: May 2, 2016 at 4:38:31 AM

Latest Report: May 2, 2016 at 3:52 AM


Visibility: 10 mi

Pressure: 30.04 "Hg

Humidity: 89%

Dew Point: 45 °F

Location of BridgewaterLocation

Historic Weather in Bridgewater — Graph

°F

Bridgewater Temperature Yesterday

Maximum temperature yesterday: 55 °F (at 10:52 AM)
Minimum temperature yesterday: 35 °F (at 2:52 AM)
Average temperature yesterday: 46 °F

High & Low Weather Summary for the Past Weeks

 TemperatureHumidityPressure
High81 °F (Apr 22, 12:52 PM)93% (Apr 28, 1:59 AM)30.44 "Hg (Apr 28, 1:59 AM)
Low30 °F (Apr 28, 4:52 AM)14% (Apr 24, 2:52 PM)29.73 "Hg (Apr 26, 11:52 AM)
Average51 °F58%30.05 "Hg
* Reported Apr 17 2:52 AM — May 2 2:52 AM, Bridgewater, Weather by CustomWeather, © 2016

Note: Actual official high and low records may vary slightly from our data, if they occured in-between our weather recording intervals... More about our weather records

Advertising

Bridgewater Weather History for the Previous 24 Hours

Scroll right to see more
 ConditionsComfort  
Time TempWeatherWind HumidityBarometerVisibility
2:52 AM
Mon, May 2
47 °FLow clouds.5 mph90%30.04 "Hg9 mi
1:52 AM46 °FFog.No wind89%30.07 "Hg4 mi
12:52 AM45 °FFog.No wind90%30.09 "Hg5 mi
11:52 PM
Sun, May 1
44 °FFog.3 mph89%30.11 "Hg6 mi
10:52 PM44 °FLight rain. Low clouds.3 mph89%30.13 "Hg10 mi
9:52 PM44 °FLight rain. Mostly cloudy.No wind85%30.15 "Hg10 mi
8:52 PM43 °FLight rain. Fog.3 mph89%30.16 "Hg5 mi
7:52 PM44 °FLight rain. Mostly cloudy.No wind79%30.19 "Hg7 mi
6:52 PM45 °FMore clouds than sun.No wind68%30.19 "Hg10 mi
5:52 PM47 °FLight rain. Overcast.8 mph64%30.20 "Hg10 mi
4:52 PM50 °FLight rain. Overcast.9 mph43%30.21 "Hg10 mi
3:52 PM53 °FOvercast.8 mph35%30.20 "Hg10 mi
2:52 PM54 °FLight rain. Overcast.8 mph38%30.21 "Hg10 mi
1:52 PM55 °FOvercast.8 mph34%30.22 "Hg10 mi
12:52 PM55 °FOvercast.6 mph33%30.22 "Hg10 mi
11:52 AM55 °FLight rain. Overcast.9 mph30%30.25 "Hg10 mi
10:52 AM55 °FOvercast.6 mph30%30.24 "Hg10 mi
9:52 AM54 °FPartly sunny.7 mph37%30.25 "Hg10 mi
8:52 AM51 °FPartly sunny.6 mph46%30.26 "Hg10 mi
7:52 AM46 °FSunny.3 mph73%30.26 "Hg10 mi
6:52 AM43 °FSunny.No wind82%30.26 "Hg8 mi
5:52 AM39 °FClear.No wind89%30.24 "Hg10 mi
4:52 AM37 °FClear.No wind89%30.23 "Hg10 mi
Weather by CustomWeather, © 2016

See weather overviewHow to use our weather pages